Location: Unspecified
(0.0000°N, 0.0000°E)
Time: 04:37:52
(UTC+00:00)

Vanguard 2 - Pass Details

Date: 16 December 2018
Orbit: 553 x 2939 km, 32.9° (Epoch: 17 June)

Event Time Altitude Azimuth Distance (km) Brightness Sun altitude
Rises 06:29:02 0° 270° (W) 6,467 11.7 7.7°
Reaches altitude 10° 06:34:14 10° 260° (W) 5,643 11.5 8.9°
Maximum altitude 06:48:11 28° 208° (SSW) 4,382 11.4 12.1°
Drops below altitude 10° 07:01:16 10° 154° (SSE) 5,230 12.7 15.1°
Sets 07:05:56 0° 143° (SE) 5,933 13.2 16.1°
